User: anonymous   Login
Location: Unspecified
(0.0000°N, 0.0000°E)
Time: 23:18:18
(UTC+00:00)
Language:

NANOFF A - Orbit

View from above orbital plane
View from above orbital plane
View from above satellite
View from above satellite

Ground track
Ground track

The orbit is defined by the following mean orbital elements,

1 58810U          26145.62568431 +.00000000 +00000-0 +18547-3 0 00006
2 58810  97.5269 213.3915 0010802  34.8134 325.3801 15.12112295    01
Epoch (UTC): 25 May 2026 15:00:59
Eccentricity: 0.0010802
inclination: 97.5269°
perigee height: 522 km
apogee height: 537 km
right ascension of ascending node: 213.3915°
argument of perigee: 34.8134°
revolutions per day: 15.12112295
mean anomaly at epoch: 325.3801°

The dashed part of the orbit path shows where the satellite is in the earth's shadow,  

DLR